{"data":{"norad_id":68009,"epoch":"2026-09-19T16:33:08.142048Z","epoch_age_seconds":129532,"freshness":"FRESH","line1":"1 68009U 26039Z   26262.68967757  .00017366  00000+0  63865-3 0  9999","line2":"2 68009  43.0047  33.2763 0002864 270.3514  89.7010 15.27602641 31372","mean_motion":15.27602641,"eccentricity":0.0002864,"inclination_deg":43.0047,"raan_deg":33.2763,"arg_perigee_deg":270.3514,"mean_anomaly_deg":89.701,"bstar":0.00063865,"rev_number":3137,"period_min":94.265351561408,"perigee_km":481.01627729637,"apogee_km":484.94632585951,"semimajor_km":6861.1183015779,"source":"CELESTRAK","updated_at":"2026-09-20T09:00:43.739787Z"}}